Regional Weather Roundup
Issued by NWS New Orleans/Baton Rouge, LA

Home | Current Version | Previous Version | Text Only | Print | Product List | Glossary On
Versions: 1 2 3 4 5 6 7 8 9 10 11 12 13 14 15 16 17 18 19 20 21 22 23 24 25 26 27
000
ASUS44 KLIX 171313
RWRLIX
NEW ORLEANS REGIONAL WEATHER ROUNDUP
NATIONAL WEATHER SERVICE NEW ORLEANS LA
700 AM CST WED JAN 17 2018

NOTE: "FAIR" INDICATES FEW OR NO CLOUDS BELOW 12,000 FEET WITH NO
      SIGNIFICANT WEATHER AND/OR OBSTRUCTIONS TO VISIBILITY.
      SKY/WX - SKY CONDITION AND SIGNIFICANT WEATHER.
      TMP - AIR TEMPERATURE.     DP    - DEWPOINT TEMPERATURE.
      RH  - RELATIVE HUMIDITY.   PRES  - PRESSURE.
      HI  - HEAT INDEX.          WCI   - WIND CHILL INDEX.

*  THESE STATIONS ARE NOT NWS OR FAA STATIONS AND ARE NOT UNDER
   NWS QUALITY CONTROL.

LAZ038-040-048-061>063-065>067-069-171400-
SOUTHEAST LOUISIANA

CITY           SKY/WX    TMP DP  RH WIND       PRES   REMARKS
N.O. INTL ARPT   N/A     20  11  68 N16G24    30.62R WCI   6
N.O. LAKEFRONT   N/A     20  12  71 N25       30.63R WCI   2
N.O. DOWNTOWN*   N/A     19  10  68 N17G23    30.62R WCI   4
RESERVE*         N/A     19   8  62 N12G18    30.64R WCI   6
SLIDELL          N/A     16   6  65 N14       30.62R WCI   2
BATON ROUGE      N/A     14   3  61 N10       30.67R WCI   1
BOOTHVILLE     MOCLDY    27  22  81 N14G25    30.56R WCI  16
BELLE CHASSE     N/A     19  12  74 N13G24    30.60R WCI   6
BOGALUSA*        N/A     15   6  69 N10G17    30.64S WCI   2
GALLIANO*        N/A     21  15  76 N16       30.60R WCI   7
NEW ROADS*       N/A     13   4  65 N10       30.70R WCI   0
GONZALES*        N/A     16   7  67 MISG      30.65S
HAMMOND*         N/A     14   7  73 N12G17    30.65S WCI   0
HOUMA*         CLEAR     18  10  73 N12       30.62R WCI   5
PORT FOURCHON* PTSUNNY   25  19  80 N16G25    30.59R WCI  12

$$

MSZ070-080>082-171400-
SOUTHERN MISSISSIPPI

CITY           SKY/WX    TMP DP  RH WIND       PRES   REMARKS
MCCOMB           N/A     12   3  67 N9        30.64R WCI   0
GULFPORT       DRIZZLE   17   9  70 N12G21    30.59R WCI   4
BILOXI           N/A     17  10  74 N10       30.57R WCI   5
PASCAGOULA       N/A     18  12  77 N14       30.57R WCI   4
STENNIS ARPT*  CLEAR     16   9  73 N12       30.62  WCI   3

$$

COASTAL OBSERVATIONS
LAKE AND NEARSHORE STATIONS

STATION/POSITION TIME  TEMP    WIND        PRES    WAVE
                       AIR SEA DIR/SP/G            HT/PER
                 (UTC) (F)     (DEG/KT/KT) (MB)    (FT/S)
PASCAGOULA       1236   20     360/  7/ 10 1034.3
WAVELAND YACHT   1236   18 39  360/ 16/ 22 1035.7
GRAND ISLE       1236   25 47  360/ 18/ 24 1035.2
SOUTHWEST PASS   1236   30 44   10/ 25/ 33 1034.2
NEW CANAL        1236   22 45   10/ 18/ 24 1036.4
SHELL BEACH      1236   22 47  360/ 19/ 24 1035.5

OFFSHORE STATIONS

STATION/POSITION TIME  TEMP    WIND        PRES    WAVE
                       AIR SEA DIR/SP/G            HT/PER
                 (UTC) (F)     (DEG/KT/KT) (MB)    (FT/S)
64 S DAUPHIN ISL 1250   40 73  360/ 21/ 29 1032.4    7/ 7

$$





USA.gov is the U.S. government's official web portal to all federal, state and local government web resources and services.